Weather History for Columbia Owens, SC

Change the Weather History Date:

Friday, May 3, 2013

  Actual Average Record
Temperature  
Mean Temperature 63 °F 69 °F  
Max Temperature 69 °F 81 °F 91 °F (2007)
Min Temperature 57 °F 57 °F 46 °F (1999)
Degree Days  
Heating Degree Days 2 1  
Month to date heating degree days 2 3  
Since 1 July heating degree days 2177 2304  
Cooling Degree Days 0 5  
Month to date cooling degree days 2 14  
Year to date cooling degree days 116 113  
Growing Degree Days 12 (Base 50)    
Moisture  
Dew Point 56 °F    
Average Humidity 79    
Maximum Humidity 90    
Minimum Humidity 67    
Precipitation  
Precipitation T in 0.08 in 0.21 in (2004)
Month to date precipitation T 0.22  
Year to date precipitation 14.80 14.07  
Sea Level Pressure  
Sea Level Pressure 30.13 in    
Wind  
Wind Speed 6 mph (ENE)    
Max Wind Speed 13 mph    
Max Gust Speed 22 mph    
Visibility 10 miles    
Events Rain    
T = Trace of Precipitation, MM = Missing Value Source: NWS Daily Summary

Daily Weather History Graph

Daily Weather History Graph

Search for Another Location

Airport:

Trip Planner

Search our weather history database for the weather conditions in past years. The results will help you decide how hot, cold, wet, or windy it might be!

Date:

Astronomy

May. 03, 2013 Rise Set
Actual Time 6:32 AM EDT 8:09 PM EDT
Civil Twilight 6:05 AM EDT 8:36 PM EDT
Nautical Twilight 5:33 AM EDT 9:08 PM EDT
Astronomical Twilight 4:59 AM EDT 9:42 PM EDT
Moon 2:38 AM EDT (5/3) 2:18 PM EDT (5/3)
Length of Visible Light 14h 30m
Length of Day
13h 36m
Last Quarter, 37% of the Moon is Illuminated
May 3
Last Quarter
May 9
New
May 18
First Quarter
May 25
Full
May 31
Last Quarter

Hourly Weather History & Observations

Time (EDT) Temp. Dew Point Humidity Pressure Visibility Wind Dir Wind Speed Gust Speed Precip Events Conditions
12:25 AM 62.6 °F 59.0 °F 88% 30.18 in 10.0 mi Variable 6.9 mph - N/A   Overcast
12:38 AM 62.6 °F 59.0 °F 88% 30.18 in 10.0 mi Variable 6.9 mph - N/A   Overcast
12:53 AM 63.0 °F 59.0 °F 87% 30.17 in 10.0 mi Variable 6.9 mph - N/A   Overcast
1:16 AM 62.6 °F 57.2 °F 82% 30.17 in 10.0 mi Variable 6.9 mph - N/A   Mostly Cloudy
1:23 AM 62.6 °F 57.2 °F 82% 30.16 in 10.0 mi Variable 5.8 mph - N/A   Scattered Clouds
1:53 AM 62.1 °F 57.9 °F 86% 30.15 in 10.0 mi Variable 4.6 mph - N/A   Partly Cloudy
2:23 AM 62.6 °F 57.2 °F 82% 30.15 in 10.0 mi Variable 5.8 mph - N/A   Mostly Cloudy
2:53 AM 61.0 °F 55.9 °F 83% 30.14 in 10.0 mi Variable 5.8 mph - N/A   Mostly Cloudy
3:41 AM 60.8 °F 55.4 °F 82% 30.13 in 10.0 mi Variable 6.9 mph - N/A   Overcast
3:49 AM 60.8 °F 55.4 °F 82% 30.13 in 10.0 mi ENE 6.9 mph - N/A   Overcast
3:53 AM 60.1 °F 55.0 °F 83% 30.13 in 10.0 mi ENE 8.1 mph - N/A   Overcast
4:05 AM 60.8 °F 55.4 °F 82% 30.13 in 10.0 mi Variable 5.8 mph - N/A   Overcast
4:53 AM 59.0 °F 54.0 °F 83% 30.12 in 10.0 mi Variable 4.6 mph - N/A   Partly Cloudy
5:53 AM 57.9 °F 53.1 °F 84% 30.12 in 10.0 mi Variable 6.9 mph - N/A   Partly Cloudy
6:53 AM 57.9 °F 53.1 °F 84% 30.13 in 10.0 mi Variable 6.9 mph - N/A   Mostly Cloudy
7:53 AM 57.9 °F 53.1 °F 84% 30.14 in 10.0 mi East 3.5 mph - N/A   Overcast
8:53 AM 57.9 °F 53.1 °F 84% 30.15 in 10.0 mi Variable 6.9 mph - N/A   Overcast
9:53 AM 59.0 °F 54.0 °F 83% 30.16 in 10.0 mi Variable 3.5 mph - N/A   Overcast
10:53 AM 60.1 °F 55.0 °F 83% 30.15 in 10.0 mi Variable 6.9 mph - N/A   Overcast
11:53 AM 64.0 °F 55.9 °F 75% 30.15 in 10.0 mi Variable 5.8 mph - N/A   Overcast
12:01 PM 64.4 °F 55.4 °F 73% 30.15 in 10.0 mi NE 10.4 mph 17.3 mph N/A   Overcast
12:53 PM 66.9 °F 55.9 °F 68% 30.14 in 10.0 mi ENE 9.2 mph - N/A   Mostly Cloudy
1:53 PM 68.0 °F 57.0 °F 68% 30.13 in 10.0 mi ENE 11.5 mph 19.6 mph N/A   Overcast
2:35 PM 68.0 °F 57.2 °F 68% 30.12 in 10.0 mi East 6.9 mph - N/A   Overcast
2:53 PM 68.0 °F 57.9 °F 70% 30.12 in 10.0 mi Variable 5.8 mph 17.3 mph N/A   Overcast
3:11 PM 64.4 °F 59.0 °F 83% 30.12 in 4.0 mi Variable 4.6 mph - 0.00 in Rain Light Rain
3:34 PM 64.4 °F 59.0 °F 83% 30.12 in 4.0 mi Variable 4.6 mph - 0.00 in   Haze
3:53 PM 64.9 °F 59.0 °F 81% 30.10 in 10.0 mi Variable 4.6 mph - 0.00 in   Overcast
4:53 PM 66.0 °F 57.9 °F 75% 30.10 in 10.0 mi Variable 6.9 mph - N/A   Overcast
5:07 PM 64.4 °F 57.2 °F 77% 30.10 in 10.0 mi ENE 8.1 mph 18.4 mph N/A   Overcast
5:29 PM 64.4 °F 57.2 °F 77% 30.09 in 10.0 mi Variable 5.8 mph 17.3 mph N/A   Overcast
5:53 PM 64.9 °F 57.0 °F 75% 30.09 in 10.0 mi East 8.1 mph 16.1 mph N/A   Overcast
6:53 PM 64.9 °F 57.0 °F 75% 30.09 in 10.0 mi ENE 6.9 mph - N/A   Overcast
7:53 PM 64.0 °F 57.0 °F 78% 30.08 in 10.0 mi Variable 3.5 mph - N/A   Overcast
8:53 PM 64.0 °F 57.9 °F 80% 30.08 in 10.0 mi Calm Calm - N/A   Overcast
9:53 PM 64.0 °F 57.9 °F 80% 30.09 in 10.0 mi Calm Calm - N/A   Overcast
10:53 PM 64.0 °F 55.0 °F 73% 30.09 in 10.0 mi Variable 5.8 mph - N/A   Overcast
11:53 PM 63.0 °F 52.0 °F 67% 30.07 in 10.0 mi East 6.9 mph - N/A   Overcast